{"data":{"norad_id":66950,"epoch":"2026-05-25T00:38:07.750176Z","epoch_age_seconds":69891,"freshness":"FRESH","line1":"1 66950U 25286AB  26145.02647859  .00040100  00000+0  11914-2 0  9990","line2":"2 66950  53.1594   3.2009 0000961  62.0138 298.0962 15.34406765 27113","mean_motion":15.34406765,"eccentricity":9.61e-5,"inclination_deg":53.1594,"raan_deg":3.2009,"arg_perigee_deg":62.0138,"mean_anomaly_deg":298.0962,"bstar":0.0011914,"rev_number":2711,"period_min":93.847344318767,"perigee_km":462.02573046051,"apogee_km":463.34053609013,"semimajor_km":6840.8201332753,"source":"CELESTRAK","updated_at":"2026-05-25T13:38:21.391284Z"}}